ASH6200 KIAD-KHXD

Flight info

Callsign ASH6200
Flight time 1h 11m
Altitude 32000
Route JDUBB4 RRSIN GSO CTF CANTR PLZZZ
Aircraft E75L/M-SDE3GILORVW/S

Departure

Time 2026-04-22 23:43
Airport Washington Dulles International Airport (KIAD)

Arrival

Time 2026-04-23 00:55
Airport Hilton Head Airport (KHXD)
Time Latitude Longitude Altitude Speed Heading
2026-04-22 23:02 38.95159 -77.44685 288 ft 0 kts
2026-04-22 23:29 38.95154 -77.44686 288 ft 0 kts 358°
2026-04-22 23:29 38.95142 -77.44685 288 ft 2 kts 349°
2026-04-22 23:29 38.95127 -77.44678 288 ft 2 kts 332°
2026-04-22 23:29 38.95114 -77.44666 288 ft 2 kts 316°
2026-04-22 23:30 38.95108 -77.44657 288 ft 1 kts 306°
2026-04-22 23:30 38.95105 -77.44651 288 ft 0 kts 304°
2026-04-22 23:32 38.95106 -77.44653 288 ft 1 kts 300°
2026-04-22 23:33 38.95109 -77.44675 288 ft 3 kts 270°
2026-04-22 23:33 38.95109 -77.44714 288 ft 5 kts 271°
2026-04-22 23:33 38.95110 -77.44769 288 ft 6 kts 273°
2026-04-22 23:33 38.95111 -77.44836 288 ft 8 kts 270°
2026-04-22 23:34 38.95110 -77.44909 288 ft 7 kts 270°
2026-04-22 23:34 38.95111 -77.44972 288 ft 6 kts 270°
2026-04-22 23:34 38.95111 -77.45027 288 ft 5 kts 271°
2026-04-22 23:34 38.95112 -77.45046 288 ft 0 kts 273°
2026-04-22 23:35 38.95111 -77.45057 288 ft 3 kts 266°
2026-04-22 23:35 38.95095 -77.45091 288 ft 4 kts 202°
2026-04-22 23:35 38.95066 -77.45092 288 ft 3 kts 174°
2026-04-22 23:35 38.95041 -77.45078 288 ft 4 kts 131°
2026-04-22 23:36 38.95032 -77.45036 288 ft 6 kts 95°
2026-04-22 23:36 38.95031 -77.44965 288 ft 8 kts 91°
2026-04-22 23:36 38.95030 -77.44868 288 ft 11 kts 91°
2026-04-22 23:36 38.95029 -77.44756 288 ft 11 kts 90°
2026-04-22 23:37 38.95028 -77.44651 288 ft 10 kts 91°
2026-04-22 23:37 38.95027 -77.44566 290 ft 7 kts 91°
2026-04-22 23:37 38.95026 -77.44497 291 ft 8 kts 92°
2026-04-22 23:37 38.95026 -77.44406 291 ft 9 kts 91°
2026-04-22 23:38 38.95025 -77.44318 291 ft 8 kts 91°
2026-04-22 23:38 38.95025 -77.44239 291 ft 8 kts 91°
2026-04-22 23:38 38.95023 -77.44167 291 ft 6 kts 91°
2026-04-22 23:38 38.95023 -77.44121 292 ft 3 kts 90°
2026-04-22 23:39 38.95023 -77.44088 293 ft 3 kts 91°
2026-04-22 23:39 38.95022 -77.44047 293 ft 5 kts 92°
2026-04-22 23:39 38.95033 -77.43985 294 ft 9 kts 48°
2026-04-22 23:39 38.95115 -77.43966 292 ft 15 kts
2026-04-22 23:40 38.95228 -77.43964 292 ft 16 kts
2026-04-22 23:40 38.95343 -77.43963 291 ft 17 kts
2026-04-22 23:40 38.95433 -77.43961 291 ft 8 kts
2026-04-22 23:40 38.95482 -77.43923 291 ft 9 kts 79°
2026-04-22 23:41 38.95486 -77.43836 291 ft 9 kts 88°
2026-04-22 23:41 38.95486 -77.43763 292 ft 4 kts 91°
2026-04-22 23:41 38.95486 -77.43731 293 ft 2 kts 90°
2026-04-22 23:41 38.95486 -77.43694 294 ft 5 kts 91°
2026-04-22 23:42 38.95483 -77.43630 294 ft 6 kts 109°
2026-04-22 23:42 38.95429 -77.43600 293 ft 9 kts 183°
2026-04-22 23:42 38.95419 -77.43600 293 ft 0 kts 182°
2026-04-22 23:42 38.95392 -77.43600 293 ft 14 kts 182°
2026-04-22 23:43 38.95018 -77.43605 293 ft 89 kts 180°
2026-04-22 23:43 38.94178 -77.43622 304 ft 147 kts 181°
2026-04-22 23:43 38.93059 -77.43610 614 ft 167 kts 181°
2026-04-22 23:43 38.91855 -77.43585 1104 ft 183 kts 182°
2026-04-22 23:44 38.90522 -77.43549 1625 ft 192 kts 183°
2026-04-22 23:44 38.89194 -77.43501 2157 ft 197 kts 181°
2026-04-22 23:44 38.87809 -77.43598 2630 ft 208 kts 205°
2026-04-22 23:44 38.86466 -77.44492 3015 ft 230 kts 211°
2026-04-22 23:45 38.84930 -77.45360 3572 ft 249 kts 206°
2026-04-22 23:45 38.83223 -77.46145 4034 ft 273 kts 202°
2026-04-22 23:45 38.81368 -77.46892 4726 ft 285 kts 200°
2026-04-22 23:45 38.79450 -77.47611 5593 ft 289 kts 200°
2026-04-22 23:46 38.77506 -77.48317 6507 ft 291 kts 200°
2026-04-22 23:46 38.75567 -77.49010 7420 ft 293 kts 200°
2026-04-22 23:46 38.73591 -77.49712 8301 ft 296 kts 199°
2026-04-22 23:46 38.71597 -77.50415 9146 ft 300 kts 199°
2026-04-22 23:47 38.69596 -77.51122 9891 ft 307 kts 199°
2026-04-22 23:47 38.67506 -77.51858 10043 ft 314 kts 199°
2026-04-22 23:47 38.65369 -77.52609 10248 ft 316 kts 199°
2026-04-22 23:47 38.63276 -77.53345 10182 ft 313 kts 199°
2026-04-22 23:48 38.61126 -77.54102 10651 ft 330 kts 199°
2026-04-22 23:48 38.58881 -77.54889 11564 ft 332 kts 199°
2026-04-22 23:48 38.56659 -77.55669 12375 ft 337 kts 199°
2026-04-22 23:48 38.54367 -77.56473 13131 ft 344 kts 199°
2026-04-22 23:49 38.52047 -77.57286 13890 ft 350 kts 199°
2026-04-22 23:49 38.49673 -77.58117 14680 ft 355 kts 200°
2026-04-22 23:49 38.47272 -77.58958 15490 ft 358 kts 200°
2026-04-22 23:49 38.44884 -77.59792 16267 ft 361 kts 200°
2026-04-22 23:50 38.42431 -77.60650 17029 ft 365 kts 200°
2026-04-22 23:50 38.39972 -77.61509 17747 ft 369 kts 200°
2026-04-22 23:50 38.37512 -77.62367 18446 ft 373 kts 200°
2026-04-22 23:50 38.34978 -77.63251 19129 ft 378 kts 200°
2026-04-22 23:51 38.32448 -77.64133 19782 ft 382 kts 200°
2026-04-22 23:51 38.29966 -77.65263 20456 ft 378 kts 216°
2026-04-22 23:51 38.27876 -77.67272 21091 ft 376 kts 225°
2026-04-22 23:51 38.25860 -77.69421 21732 ft 379 kts 225°
2026-04-22 23:52 38.23823 -77.71603 22347 ft 383 kts 225°
2026-04-22 23:52 38.21773 -77.73798 22940 ft 387 kts 225°
2026-04-22 23:52 38.19706 -77.76012 23533 ft 390 kts 225°
2026-04-22 23:52 38.17645 -77.78217 24077 ft 394 kts 226°
2026-04-22 23:53 38.15543 -77.80464 24596 ft 398 kts 225°
2026-04-22 23:53 38.13396 -77.82758 25098 ft 402 kts 226°
2026-04-22 23:53 38.11266 -77.85033 25590 ft 406 kts 226°
2026-04-22 23:53 38.09087 -77.87357 26055 ft 411 kts 226°
2026-04-22 23:54 38.06892 -77.89697 26537 ft 415 kts 226°
2026-04-22 23:54 38.04655 -77.92079 27027 ft 418 kts 226°
2026-04-22 23:54 38.02425 -77.94453 27493 ft 422 kts 226°
2026-04-22 23:54 38.00158 -77.96862 27950 ft 425 kts 226°
2026-04-22 23:55 37.97913 -77.99249 28391 ft 428 kts 226°
2026-04-22 23:55 37.95613 -78.01689 28786 ft 433 kts 226°
2026-04-22 23:55 37.93282 -78.04162 29194 ft 437 kts 226°
2026-04-22 23:55 37.90939 -78.06644 29598 ft 441 kts 226°
2026-04-22 23:56 37.88583 -78.09139 29995 ft 444 kts 226°
2026-04-22 23:56 37.86192 -78.11668 30392 ft 446 kts 226°
2026-04-22 23:56 37.83784 -78.14214 30774 ft 449 kts 226°
2026-04-22 23:56 37.81369 -78.16763 31116 ft 453 kts 226°
2026-04-22 23:57 37.78958 -78.19308 31441 ft 456 kts 226°
2026-04-22 23:57 37.76503 -78.21896 31768 ft 460 kts 226°
2026-04-22 23:57 37.74040 -78.24487 32001 ft 456 kts 226°
2026-04-22 23:57 37.71577 -78.27082 32030 ft 467 kts 226°
2026-04-22 23:58 37.69039 -78.29752 32036 ft 478 kts 225°
2026-04-22 23:58 37.66470 -78.32449 32043 ft 489 kts 225°
2026-04-22 23:58 37.61193 -78.37981 32030 ft 492 kts 225°
2026-04-22 23:59 37.55923 -78.43498 32039 ft 488 kts 225°
2026-04-22 23:59 37.50686 -78.48970 32053 ft 486 kts 225°
2026-04-23 00:00 37.42853 -78.57104 32049 ft 488 kts 225°
2026-04-23 00:01 37.37614 -78.62509 32053 ft 485 kts 225°
2026-04-23 00:01 37.32357 -78.67922 32055 ft 487 kts 224°
2026-04-23 00:02 37.27132 -78.73292 32060 ft 488 kts 224°
2026-04-23 00:02 37.21840 -78.78722 32065 ft 486 kts 224°
2026-04-23 00:03 37.16587 -78.84100 32076 ft 486 kts 224°
2026-04-23 00:03 37.11343 -78.89462 32084 ft 487 kts 224°
2026-04-23 00:04 37.06086 -78.94824 32085 ft 485 kts 224°
2026-04-23 00:04 37.00833 -79.00175 32083 ft 486 kts 224°
2026-04-23 00:05 36.95599 -79.05495 32084 ft 487 kts 224°
2026-04-23 00:05 36.90347 -79.10884 32088 ft 485 kts 224°
2026-04-23 00:06 36.85089 -79.16277 32080 ft 486 kts 224°
2026-04-23 00:06 36.79841 -79.21648 32081 ft 486 kts 224°
2026-04-23 00:07 36.74606 -79.26996 32078 ft 486 kts 224°
2026-04-23 00:07 36.69354 -79.32352 32092 ft 486 kts 224°
2026-04-23 00:08 36.64108 -79.37691 32090 ft 486 kts 224°
2026-04-23 00:08 36.58858 -79.43027 32091 ft 487 kts 224°
2026-04-23 00:09 36.53610 -79.48349 32091 ft 486 kts 224°
2026-04-23 00:09 36.48360 -79.53664 32094 ft 486 kts 224°
2026-04-23 00:10 36.43133 -79.58947 32095 ft 485 kts 224°
2026-04-23 00:10 36.37892 -79.64234 32097 ft 485 kts 224°
2026-04-23 00:11 36.32668 -79.69495 32104 ft 485 kts 223°
2026-04-23 00:11 36.27446 -79.74743 32108 ft 486 kts 223°
2026-04-23 00:12 36.22207 -79.80000 32107 ft 486 kts 223°
2026-04-23 00:12 36.16942 -79.85274 32112 ft 486 kts 223°
2026-04-23 00:13 36.11719 -79.90496 32116 ft 484 kts 223°
2026-04-23 00:13 36.06293 -79.95544 32116 ft 490 kts 213°
2026-04-23 00:14 36.00000 -79.98770 32122 ft 496 kts 196°
2026-04-23 00:14 35.93136 -80.00163 32118 ft 498 kts 191°
2026-04-23 00:15 35.86328 -80.01601 32108 ft 498 kts 192°
2026-04-23 00:15 35.79518 -80.03075 32105 ft 497 kts 192°
2026-04-23 00:16 35.72693 -80.04549 32107 ft 497 kts 191°
2026-04-23 00:16 35.65863 -80.06024 32104 ft 497 kts 192°
2026-04-23 00:17 35.59047 -80.07492 32111 ft 497 kts 191°
2026-04-23 00:17 35.52223 -80.08960 32108 ft 498 kts 191°
2026-04-23 00:17 35.48822 -80.09692 32224 ft 498 kts 191°
2026-04-23 00:18 35.45405 -80.10424 32114 ft 496 kts 191°
2026-04-23 00:18 35.42090 -80.11134 32037 ft 477 kts 191°
2026-04-23 00:18 35.38873 -80.11822 31999 ft 454 kts 191°
2026-04-23 00:18 35.35856 -80.12469 31939 ft 434 kts 191°
2026-04-23 00:19 35.32928 -80.13095 31878 ft 415 kts 191°
2026-04-23 00:19 35.30106 -80.13698 31816 ft 397 kts 192°
2026-04-23 00:19 35.27454 -80.14265 31755 ft 380 kts 192°
2026-04-23 00:19 35.24870 -80.14816 31692 ft 363 kts 192°
2026-04-23 00:20 35.22448 -80.15333 31627 ft 348 kts 192°
2026-04-23 00:20 35.20100 -80.15833 31565 ft 335 kts 192°
2026-04-23 00:20 35.17758 -80.16334 31588 ft 346 kts 192°
2026-04-23 00:20 35.15369 -80.16843 31640 ft 359 kts 192°
2026-04-23 00:21 35.12839 -80.17382 31689 ft 372 kts 192°
2026-04-23 00:21 35.10256 -80.17932 31735 ft 385 kts 191°
2026-04-23 00:21 35.07574 -80.18502 31775 ft 398 kts 191°
2026-04-23 00:21 35.04788 -80.19093 31812 ft 411 kts 191°
2026-04-23 00:22 35.01916 -80.19704 31850 ft 424 kts 191°
2026-04-23 00:22 34.98990 -80.20324 31887 ft 436 kts 191°
2026-04-23 00:22 34.95913 -80.20976 31921 ft 448 kts 191°
2026-04-23 00:22 34.92835 -80.21628 31951 ft 460 kts 191°
2026-04-23 00:23 34.89638 -80.22304 31974 ft 472 kts 191°
2026-04-23 00:23 34.86322 -80.23006 31983 ft 483 kts 191°
2026-04-23 00:23 34.82997 -80.23708 32118 ft 490 kts 191°
2026-04-23 00:23 34.79617 -80.24422 32492 ft 492 kts 191°
2026-04-23 00:24 34.76235 -80.25135 32959 ft 491 kts 191°
2026-04-23 00:24 34.72880 -80.25842 33460 ft 490 kts 191°
2026-04-23 00:24 34.69521 -80.26550 33993 ft 487 kts 191°
2026-04-23 00:24 34.66200 -80.27422 34553 ft 483 kts 199°
2026-04-23 00:25 34.63082 -80.28848 35102 ft 479 kts 208°
2026-04-23 00:25 34.57301 -80.32722 34793 ft 477 kts 212°
2026-04-23 00:25 34.54411 -80.34684 34432 ft 476 kts 212°
2026-04-23 00:26 34.51514 -80.36643 34081 ft 469 kts 212°
2026-04-23 00:26 34.48692 -80.38547 33720 ft 460 kts 212°
2026-04-23 00:26 34.45848 -80.40467 33402 ft 478 kts 211°
2026-04-23 00:26 34.42924 -80.42437 33125 ft 478 kts 211°
2026-04-23 00:27 34.40020 -80.44393 32849 ft 477 kts 211°
2026-04-23 00:27 34.37142 -80.46330 32579 ft 479 kts 211°
2026-04-23 00:27 34.34209 -80.48301 32308 ft 481 kts 211°
2026-04-23 00:28 34.28389 -80.52209 32262 ft 479 kts 211°
2026-04-23 00:28 34.22539 -80.56132 32229 ft 479 kts 211°
2026-04-23 00:29 34.16695 -80.60043 32200 ft 479 kts 211°
2026-04-23 00:29 34.10840 -80.63957 32168 ft 478 kts 211°
2026-04-23 00:30 34.05035 -80.67830 32139 ft 477 kts 211°
2026-04-23 00:30 33.99225 -80.71701 32116 ft 477 kts 211°
2026-04-23 00:31 33.93380 -80.75588 32091 ft 477 kts 210°
2026-04-23 00:31 33.87580 -80.79440 32099 ft 475 kts 210°
2026-04-23 00:32 33.81765 -80.83296 32202 ft 478 kts 210°
2026-04-23 00:32 33.78886 -80.85203 31883 ft 481 kts 210°
2026-04-23 00:32 33.75964 -80.87136 31356 ft 474 kts 210°
2026-04-23 00:32 33.73074 -80.89047 30820 ft 469 kts 210°
2026-04-23 00:33 33.70234 -80.90924 30309 ft 464 kts 210°
2026-04-23 00:33 33.67441 -80.92768 29803 ft 462 kts 210°
2026-04-23 00:33 33.64625 -80.94625 29302 ft 458 kts 210°
2026-04-23 00:33 33.61821 -80.96474 28794 ft 454 kts 210°
2026-04-23 00:34 33.59074 -80.98283 28298 ft 448 kts 210°
2026-04-23 00:34 33.56352 -81.00075 27801 ft 444 kts 210°
2026-04-23 00:34 33.53670 -81.01840 27320 ft 439 kts 210°
2026-04-23 00:34 33.51011 -81.03588 26839 ft 435 kts 210°
2026-04-23 00:35 33.48350 -81.05336 26356 ft 431 kts 210°
2026-04-23 00:35 33.45745 -81.07046 25880 ft 427 kts 210°
2026-04-23 00:35 33.43140 -81.08755 25413 ft 423 kts 210°
2026-04-23 00:35 33.40554 -81.10450 24939 ft 419 kts 210°
2026-04-23 00:36 33.37962 -81.11996 24462 ft 416 kts 199°
2026-04-23 00:36 33.35129 -81.12670 24036 ft 414 kts 189°
2026-04-23 00:36 33.32206 -81.13129 23545 ft 411 kts 188°
2026-04-23 00:36 33.29364 -81.13557 23091 ft 408 kts 188°
2026-04-23 00:37 33.26503 -81.13983 22636 ft 404 kts 188°
2026-04-23 00:37 33.23713 -81.14396 22190 ft 402 kts 188°
2026-04-23 00:37 33.20950 -81.14804 21752 ft 400 kts 188°
2026-04-23 00:37 33.18194 -81.15211 21299 ft 397 kts 188°
2026-04-23 00:38 33.15474 -81.15612 20862 ft 393 kts 187°
2026-04-23 00:38 33.12753 -81.16013 20433 ft 391 kts 187°
2026-04-23 00:38 33.10068 -81.16408 20011 ft 389 kts 187°
2026-04-23 00:38 33.07364 -81.16806 19557 ft 387 kts 187°
2026-04-23 00:39 33.04696 -81.17198 19125 ft 385 kts 187°
2026-04-23 00:39 33.02035 -81.17590 18709 ft 383 kts 186°
2026-04-23 00:39 32.99413 -81.17974 18300 ft 381 kts 186°
2026-04-23 00:39 32.96767 -81.18363 17880 ft 379 kts 186°
2026-04-23 00:40 32.94146 -81.18747 17449 ft 376 kts 186°
2026-04-23 00:40 32.91582 -81.19123 17045 ft 373 kts 186°
2026-04-23 00:40 32.89008 -81.19500 16647 ft 370 kts 186°
2026-04-23 00:40 32.86448 -81.19875 16246 ft 366 kts 187°
2026-04-23 00:41 32.83921 -81.20245 15819 ft 363 kts 187°
2026-04-23 00:41 32.81429 -81.20609 15406 ft 359 kts 187°
2026-04-23 00:41 32.78925 -81.20976 15026 ft 357 kts 187°
2026-04-23 00:41 32.76451 -81.21323 14618 ft 353 kts 184°
2026-04-23 00:42 32.74067 -81.20882 14248 ft 350 kts 156°
2026-04-23 00:42 32.72062 -81.19255 13738 ft 350 kts 131°
2026-04-23 00:42 32.70718 -81.16914 13344 ft 344 kts 121°
2026-04-23 00:42 32.69477 -81.14444 12933 ft 342 kts 120°
2026-04-23 00:43 32.68283 -81.12022 12551 ft 341 kts 120°
2026-04-23 00:43 32.67102 -81.09611 12176 ft 339 kts 120°
2026-04-23 00:43 32.65909 -81.07170 11796 ft 337 kts 120°
2026-04-23 00:43 32.64751 -81.04799 11434 ft 330 kts 120°
2026-04-23 00:44 32.63607 -81.02457 11060 ft 321 kts 120°
2026-04-23 00:44 32.62499 -81.00188 10696 ft 311 kts 120°
2026-04-23 00:44 32.61425 -80.97994 10375 ft 306 kts 120°
2026-04-23 00:44 32.60351 -80.95798 10028 ft 301 kts 120°
2026-04-23 00:45 32.59313 -80.93677 9702 ft 299 kts 120°
2026-04-23 00:45 32.58262 -80.91533 9203 ft 297 kts 120°
2026-04-23 00:45 32.57243 -80.89453 8859 ft 292 kts 120°
2026-04-23 00:45 32.56215 -80.87358 8532 ft 291 kts 120°
2026-04-23 00:46 32.55193 -80.85274 8211 ft 291 kts 120°
2026-04-23 00:46 32.54176 -80.83202 7890 ft 290 kts 120°
2026-04-23 00:46 32.53162 -80.81139 7572 ft 288 kts 120°
2026-04-23 00:46 32.52154 -80.79088 7256 ft 287 kts 120°
2026-04-23 00:47 32.51144 -80.77035 6937 ft 286 kts 120°
2026-04-23 00:47 32.50150 -80.75015 6623 ft 284 kts 120°
2026-04-23 00:47 32.49147 -80.72977 6308 ft 282 kts 120°
2026-04-23 00:47 32.48153 -80.70959 5997 ft 281 kts 120°
2026-04-23 00:48 32.47181 -80.68986 5680 ft 273 kts 120°
2026-04-23 00:48 32.46253 -80.67104 5356 ft 255 kts 120°
2026-04-23 00:48 32.45384 -80.65343 5110 ft 237 kts 120°
2026-04-23 00:48 32.44562 -80.63677 4892 ft 230 kts 120°
2026-04-23 00:49 32.43750 -80.62032 4625 ft 232 kts 120°
2026-04-23 00:49 32.42942 -80.60433 4423 ft 218 kts 127°
2026-04-23 00:49 32.41738 -80.59493 4168 ft 207 kts 172°
2026-04-23 00:49 32.40333 -80.59717 3829 ft 201 kts 202°
2026-04-23 00:50 32.39048 -80.60335 3523 ft 199 kts 204°
2026-04-23 00:50 32.37778 -80.60998 3221 ft 195 kts 205°
2026-04-23 00:50 32.36609 -80.61633 3069 ft 172 kts 206°
2026-04-23 00:50 32.35541 -80.62228 2781 ft 162 kts 206°
2026-04-23 00:51 32.34531 -80.62798 2554 ft 156 kts 206°
2026-04-23 00:51 32.33588 -80.63334 2317 ft 143 kts 206°
2026-04-23 00:51 32.32734 -80.63822 2121 ft 128 kts 205°
2026-04-23 00:51 32.31949 -80.64272 1969 ft 121 kts 205°
2026-04-23 00:52 32.31189 -80.64709 1847 ft 121 kts 205°
2026-04-23 00:52 32.30416 -80.65153 1715 ft 123 kts 204°
2026-04-23 00:52 32.29641 -80.65597 1559 ft 124 kts 204°
2026-04-23 00:52 32.28869 -80.66042 1423 ft 124 kts 205°
2026-04-23 00:53 32.28087 -80.66491 1236 ft 125 kts 205°
2026-04-23 00:53 32.27301 -80.66947 1064 ft 124 kts 206°
2026-04-23 00:53 32.26533 -80.67411 832 ft 124 kts 207°
2026-04-23 00:53 32.25763 -80.67856 618 ft 122 kts 202°
2026-04-23 00:54 32.24986 -80.68275 450 ft 122 kts 206°
2026-04-23 00:54 32.24218 -80.68729 325 ft 122 kts 205°
2026-04-23 00:54 32.23459 -80.69164 147 ft 123 kts 205°
2026-04-23 00:54 32.22683 -80.69607 14 ft 115 kts 205°
2026-04-23 00:55 32.22169 -80.69899 13 ft 47 kts 206°
2026-04-23 00:55 32.22051 -80.69968 13 ft 12 kts 206°
2026-04-23 00:55 32.21950 -80.70026 13 ft 11 kts 208°
2026-04-23 00:55 32.21933 -80.70096 13 ft 8 kts 292°
2026-04-23 00:56 32.21979 -80.70117 13 ft 8 kts 19°
2026-04-23 00:56 32.22033 -80.70088 13 ft 9 kts 27°
2026-04-23 00:56 32.22092 -80.70053 13 ft 10 kts 25°
2026-04-23 00:56 32.22158 -80.70016 13 ft 10 kts 26°
2026-04-23 00:57 32.22230 -80.69974 13 ft 11 kts 26°
2026-04-23 00:57 32.22308 -80.69929 13 ft 12 kts 26°
2026-04-23 00:57 32.22392 -80.69880 13 ft 13 kts 26°
2026-04-23 00:57 32.22480 -80.69829 13 ft 13 kts 25°
2026-04-23 00:58 32.22552 -80.69787 13 ft 9 kts 26°
2026-04-23 00:58 32.22600 -80.69795 13 ft 4 kts 330°
2026-04-23 00:58 32.22624 -80.69815 13 ft 3 kts 321°
2026-04-23 00:58 32.22635 -80.69825 13 ft 0 kts 319°